Location: Владивосток
(43.1151°N, 131.8856°E)
Time: 19:51:49
(UTC+10:00)

CUBEBUG 2 - Pass Details

Date: 03 July 2022
Orbit: 584 x 692 km, 97.7° (Epoch: 13 August)

Event Time Altitude Azimuth Distance (km) Brightness Sun altitude
Rises 04:53:11 0° 3° (N) 2,836 ? -7.3°
Reaches altitude 10° 04:55:28 10° 354° (N) 1,940 ? -7.0°
Maximum altitude 04:59:16 34° 290° (WNW) 998 ? -6.4°
Drops below altitude 10° 05:03:09 10° 225° (SW) 1,975 ? -5.9°
Enters shadow 05:03:52 - 221° (SW) 2,249 ? -5.8°
